Simultaneous Nadir Overpasses (SNOs) Predictions

Prediction of SNOs between METOP-B and TERRA Satellite Orbit:

Table of predicted SNOs for the next 14.0 days since TLE Epoch: 7/11/2020
Index Date (METOP-B) Time (METOP-B) Lat,Lon (METOP-B) SZA (METOP-B ) Date (TERRA) Time (TERRA) Lat,Lon (TERRA) SZA (TERRA ) Distance(km) Time Diff (sec)
1 07/11/2020 11:55:11 81.32, 48.61 62.10 07/11/2020 11:55:53 81.32, 48.78 62.14 2.87 42
2 07/11/2020 12:45:51 -81.33,-143.67 117.85 07/11/2020 12:45:20 -81.32,-143.66 117.87 0.77 31
3 07/14/2020 07:29:31 81.32, 115.07 62.50 07/14/2020 07:30:09 81.32, 115.17 62.53 1.71 38
4 07/14/2020 08:20:11 -81.33, -77.21 117.45 07/14/2020 08:19:36 -81.32, -77.24 117.47 0.97 35
5 07/17/2020 03:03:52 81.32,-178.48 62.96 07/17/2020 03:04:27 81.32,-178.42 62.98 1.07 35
6 07/17/2020 03:54:32 -81.33, -10.76 116.99 07/17/2020 03:53:54 -81.32, -10.79 117.02 1.03 38
7 07/19/2020 22:38:13 81.32,-112.04 63.46 07/19/2020 22:38:46 81.32,-111.99 63.48 0.92 33
8 07/19/2020 23:28:53 -81.33, 55.68 116.49 07/19/2020 23:28:13 -81.32, 55.66 116.52 0.72 40
9 07/22/2020 18:12:33 81.32, -45.62 64.01 07/22/2020 18:13:05 81.32, -45.54 64.03 1.24 32
